Wind_Speed
24 23 23 24 25 27 28 28 27 27 28 31 33 35 37 39 40 40 41 42 43 43 42 42 41 42 44 48 52 56 57 57 56 54 53 52 49 47 45 46 45 45 47 47 46 45 43 41 40 40 41 40 38 36 32 30 28 26 25 22 19 16 12 8 4 7 10 8 7 8 10 13 13 10 10 9 7 6 8 10 9 10 14 18 21 23 26 28
26 26 25 24 23 25 27 29 29 28 28 30 33 35 37 39 41 42 43 44 45 45 45 44 43 43 44 47 51 55 57 58 57 56 55 53 51 49 48 47 46 45 47 48 47 46 45 43 41 41 42 42 40 38 34 32 29 28 25 23 21 19 15 12 9 11 11 11 10 10 11 11 11 12 12 8 6 6 8 9 8 8 12 16 19 22 24 26
27 28 27 27 25 24 25 27 29 30 30 30 32 35 37 39 41 43 44 45 46 47 47 46 46 45 45 46 50 54 57 59 58 57 56 54 52 51 50 49 47 47 48 49 49 48 47 45 43 42 43 43 42 39 36 34 31 29 27 24 23 21 19 15 15 16 13 14 14 12 13 14 12 13 11 5 4 5 7 7 8 9 12 14 17 21 22 24
27 27 28 28 28 27 26 26 28 30 32 32 32 33 37 39 42 44 46 46 48 49 49 49 48 47 47 47 49 53 57 59 59 59 57 56 54 53 52 51 49 48 49 50 50 50 49 47 45 44 44 44 43 41 38 36 33 31 27 26 24 21 21 19 17 19 17 17 18 15 15 17 16 12 8 3 4 7 8 7 8 9 10 13 17 20 20 22
27 28 29 29 29 29 28 27 27 29 32 33 33 33 35 39 42 44 47 48 49 50 51 51 50 50 49 48 49 52 56 59 60 60 59 58 56 55 54 53 52 50 50 51 52 52 51 49 47 45 45 44 43 42 41 38 35 33 29 27 25 21 21 21 19 19 19 19 19 19 17 17 16 10 7 6 6 7 7 8 8 8 10 13 18 19 19 21
26 28 29 30 30 30 30 30 29 29 30 33 35 35 35 38 42 44 47 49 50 51 52 53 53 52 51 51 50 51 55 59 61 62 61 59 58 56 56 55 54 52 51 52 53 53 52 50 48 46 46 45 44 43 43 41 38 35 32 30 28 22 20 22 21 21 20 18 19 20 19 17 15 9 6 7 7 6 6 7 7 7 9 13 17 18 17 19
25 26 27 29 31 31 31 31 31 31 31 32 34 36 37 37 40 44 47 50 52 53 53 54 55 55 54 53 52 52 54 57 61 63 63 61 60 58 57 57 56 53 52 52 53 54 53 51 49 47 46 45 45 45 44 43 40 37 34 33 31 25 22 22 23 23 22 19 17 20 20 18 17 12 8 10 10 8 7 6 6 7 9 13 16 15 15 17
28 27 27 27 29 31 32 32 33 33 33 32 33 36 38 39 39 43 48 50 52 54 55 55 57 57 57 56 55 54 55 57 60 63 64 63 62 60 59 58 57 55 53 53 53 54 54 52 50 48 47 46 46 46 45 43 41 39 36 35 33 28 24 24 24 23 24 23 18 18 18 18 17 14 12 14 13 10 9 6 5 9 9 12 14 13 14 17
33 31 30 28 28 29 31 33 34 34 34 34 34 35 38 41 41 42 47 50 52 55 56 57 58 59 59 58 58 57 57 58 60 62 65 65 64 62 61 60 59 57 55 54 54 54 55 54 51 49 48 48 47 47 46 45 42 40 39 37 34 31 27 25 24 21 23 27 24 19 17 15 15 14 14 15 14 11 11 8 7 9 9 11 12 12 14 17
36 35 33 32 30 29 29 32 34 35 35 36 36 36 37 41 43 43 45 50 53 55 57 59 59 60 61 61 61 60 59 59 60 62 65 66 65 64 63 62 60 59 58 56 55 55 55 54 52 50 50 50 49 48 47 47 44 42 41 39 36 34 30 27 23 19 20 24 25 24 19 14 14 17 16 14 14 13 13 11 9 9 8 10 12 13 15 16
38 36 35 34 33 32 30 30 32 35 36 37 37 38 39 40 44 46 45 48 53 55 57 60 61 62 63 63 63 63 62 61 61 61 64 66 67 66 65 64 62 61 60 58 57 56 55 54 52 51 51 51 51 50 49 49 47 45 43 41 39 36 32 29 24 20 21 24 25 25 22 20 20 20 19 17 16 13 13 12 11 11 11 11 12 13 15 14
41 38 36 35 34 33 32 31 31 33 36 37 38 39 40 41 43 47 48 48 51 56 58 60 62 63 64 65 65 65 65 64 63 62 63 65 67 67 66 65 64 63 62 61 59 57 55 54 53 53 52 53 54 53 52 51 49 47 46 43 42 40 36 32 28 25 26 27 29 27 24 26 26 23 21 21 19 16 15 15 13 14 12 11 11 12 14 12
44 40 38 36 35 34 33 32 31 32 34 37 39 39 40 43 44 46 49 50 50 54 58 60 62 65 65 66 67 68 68 67 66 63 63 65 67 68 68 67 66 65 64 63 61 59 56 55 55 55 54 55 56 57 56 55 52 50 48 45 44 44 40 37 33 31 28 27 32 33 28 29 30 26 25 23 20 18 18 16 14 14 11 10 10 11 12 9
48 44 41 38 37 36 34 32 32 32 33 35 38 40 40 42 44 46 49 52 51 53 58 61 63 65 67 67 69 71 71 70 68 65 65 65 67 69 69 69 68 67 66 65 63 61 58 56 56 56 57 57 59 58 57 57 54 52 50 48 47 47 45 42 38 35 31 28 31 35 33 33 32 28 26 25 20 18 19 16 15 15 11 9 8 9 9 6
52 49 45 42 40 38 36 34 33 33 34 35 37 40 41 41 44 46 48 52 54 53 56 62 64 66 68 69 71 72 73 73 70 68 67 67 68 70 71 71 70 68 68 66 65 62 60 58 57 58 59 59 60 59 58 58 56 54 53 51 49 49 49 47 42 37 32 28 28 33 35 34 34 31 28 26 21 18 19 17 17 17 13 8 4 7 7 5
58 55 51 48 44 41 39 37 35 34 35 35 36 38 41 42 43 46 48 51 55 56 56 61 66 67 68 71 73 73 74 75 73 71 70 69 70 71 72 72 72 70 69 68 66 65 62 61 59 60 61 61 61 60 59 59 57 56 55 54 51 49 50 49 44 39 35 30 28 32 35 34 35 34 30 28 24 20 20 19 18 19 15 8 1 6 5 3
62 59 56 52 48 44 41 38 37 36 36 36 36 37 41 43 43 45 48 50 54 58 59 60 65 69 70 71 73 73 74 75 74 73 72 71 71 71 72 74 73 72 70 69 68 67 65 63 62 63 63 63 62 61 61 60 59 59 58 58 56 51 49 49 46 41 37 33 30 32 36 34 33 33 31 30 27 22 20 20 19 19 16 10 1 4 3 2
66 63 60 56 51 47 43 40 38 38 37 37 37 37 40 43 45 46 48 50 53 58 61 61 63 69 72 72 73 73 74 75 76 75 74 73 72 72 73 74 74 74 72 71 70 69 67 66 65 65 64 63 63 62 62 62 62 61 60 60 60 55 51 49 47 44 39 35 31 32 35 35 33 32 32 31 27 22 20 20 20 18 15 10 3 2 1 2
70 67 63 59 54 50 47 44 41 39 38 37 38 38 40 43 47 48 48 50 52 56 62 64 64 67 72 73 73 73 74 77 78 78 77 76 74 74 74 75 75 75 74 73 72 70 69 68 67 67 65 64 65 65 65 64 63 62 60 59 60 58 55 52 50 48 43 38 33 31 33 35 34 33 33 30 27 23 21 20 20 18 13 10 6 2 0 3
73 70 66 61 58 55 52 48 43 39 38 38 38 39 40 43 48 50 49 50 52 55 61 65 65 65 69 74 74 73 75 78 79 79 79 78 77 76 76 76 76 77 76 75 74 72 71 70 69 69 68 67 68 68 67 65 65 63 61 59 60 60 59 57 54 52 48 42 37 32 32 34 34 34 33 31 28 26 24 23 22 20 14 11 9 7 3 3
75 72 69 66 63 60 55 50 44 39 37 37 38 39 40 43 50 52 52 52 53 56 59 64 66 65 67 73 75 75 76 78 80 81 80 80 80 79 78 78 78 78 79 79 77 74 72 71 72 71 70 70 70 70 68 67 67 65 64 62 62 62 61 59 57 56 52 46 40 35 34 35 34 34 33 31 28 26 27 27 24 21 16 13 11 10 7 5
77 74 73 71 67 61 55 48 42 38 35 36 37 39 40 44 51 53 54 54 55 56 58 62 66 67 67 71 75 77 78 79 80 82 82 81 82 82 81 80 79 80 81 81 78 75 73 73 74 74 72 72 72 71 70 68 68 67 66 65 63 63 63 61 60 60 57 51 45 39 36 35 34 34 34 31 28 26 28 29 25 20 17 15 12 11 10 9
80 77 75 72 65 58 50 44 39 35 34 35 37 39 42 46 51 54 56 57 57 57 58 60 65 67 68 70 74 78 80 80 81 82 83 83 83 84 83 82 82 81 81 81 79 77 76 76 77 75 74 73 74 73 71 69 69 69 68 66 64 64 64 63 62 62 60 56 51 44 39 36 35 35 35 33 30 29 31 29 25 22 20 18 15 11 12 13
82 79 74 67 58 51 44 39 36 33 32 33 36 39 42 46 51 56 59 59 59 59 59 60 63 67 69 69 72 78 82 83 83 84 85 85 85 85 85 84 84 83 82 82 82 81 80 80 80 78 76 75 76 75 72 70 70 70 69 67 65 65 65 65 64 63 62 60 56 51 45 40 37 37 36 35 32 30 32 30 25 25 24 21 17 13 13 14
82 75 67 58 49 43 38 34 32 31 30 32 35 39 42 47 51 56 59 61 61 60 60 61 63 67 69 70 73 78 82 85 85 85 86 87 86 86 87 87 86 85 84 84 84 84 84 83 82 79 78 77 77 77 74 72 72 72 71 70 68 67 66 66 66 64 64 63 60 56 51 45 43 41 38 36 35 33 34 32 27 26 25 23 19 15 14 15
76 67 57 49 41 36 31 29 29 29 28 30 34 37 41 45 50 55 59 61 61 61 62 62 64 67 70 71 73 77 81 86 87 87 88 87 87 88 88 89 89 88 87 86 85 85 86 86 84 81 79 79 78 78 76 74 74 74 73 72 70 69 68 68 67 67 66 64 63 60 55 50 48 46 42 39 38 36 36 35 32 29 27 26 22 17 16 16
66 57 48 41 35 30 27 25 26 26 26 28 31 35 39 42 46 51 56 59 61 62 63 64 65 67 69 71 73 76 81 85 88 89 89 88 87 88 89 90 91 90 89 87 86 86 88 88 87 85 82 81 80 79 79 77 76 75 75 74 71 70 70 69 68 68 67 66 65 64 59 55 53 51 48 45 42 40 38 37 36 33 31 29 25 21 18 17
56 47 41 35 30 27 24 23 23 23 25 26 29 32 35 38 42 47 52 56 60 62 63 65 66 67 68 70 73 77 81 84 88 90 90 89 88 89 90 91 92 92 91 88 86 87 89 89 89 87 85 83 81 81 81 80 77 76 77 76 73 71 71 70 69 69 68 67 66 66 63 60 57 55 54 51 48 46 43 40 38 37 34 32 29 25 21 18
49 40 34 30 27 25 23 21 21 21 22 25 27 30 33 36 39 43 48 53 58 60 62 64 65 66 68 71 74 77 80 83 87 90 91 91 90 90 91 93 93 93 92 90 88 88 89 90 90 89 88 86 85 84 83 81 80 79 79 77 75 73 72 72 72 72 70 69 67 67 66 62 60 59 58 56 52 50 47 44 41 38 35 33 31 27 23 20
42 35 30 26 25 24 21 19 19 19 21 23 26 28 31 34 37 41 46 50 55 58 60 63 65 67 69 71 74 76 78 81 85 89 92 92 92 92 91 93 93 93 92 91 91 91 91 91 91 91 90 89 89 87 86 84 84 83 81 79 77 75 75 75 75 74 72 69 67 67 65 63 62 60 59 57 55 53 50 47 44 41 38 36 32 29 27 24
37 31 26 24 23 21 19 17 17 18 20 22 25 27 29 32 35 39 43 47 51 55 59 62 64 66 69 71 73 75 77 80 84 88 91 93 94 94 93 92 93 93 93 93 94 94 94 93 92 92 92 92 92 90 88 87 86 85 83 81 79 78 78 77 76 76 73 69 66 65 63 62 62 61 60 58 56 55 52 50 47 45 42 39 35 32 31 28
33 28 24 21 20 18 17 16 16 16 18 21 23 25 28 30 33 36 40 44 48 52 56 60 63 65 68 70 72 74 76 79 83 87 91 93 95 96 95 93 93 93 93 95 98 98 97 96 95 95 95 94 94 93 91 88 87 86 85 83 81 80 80 78 77 77 75 71 68 66 62 61 61 62 61 60 58 56 54 53 50 48 46 43 38 35 33 32
29 25 21 19 18 17 16 16 15 15 17 19 21 23 26 28 32 36 39 42 46 50 54 58 61 63 66 68 70 72 75 78 80 84 89 92 95 96 96 95 94 95 95 97 99 100 100 100 98 97 96 95 94 93 92 91 90 89 87 85 83 82 81 79 79 77 75 73 72 68 63 62 62 62 61 60 59 57 55 54 51 49 48 46 42 38 36 34
26 22 18 18 17 16 15 15 14 14 15 17 20 22 25 28 32 35 38 41 45 48 52 56 60 63 65 67 69 72 74 76 78 81 86 90 94 96 96 97 97 98 98 99 100 101 102 101 100 98 97 96 95 95 94 94 92 91 89 88 85 84 82 81 79 78 77 76 74 70 66 63 63 63 63 61 60 58 57 56 53 51 49 48 45 42 40 38
24 20 17 17 16 15 14 13 12 13 14 16 18 21 24 27 31 35 38 42 46 49 53 56 59 62 65 68 70 72 74 74 77 81 85 89 94 98 98 99 101 102 102 101 100 101 101 101 101 100 99 97 96 97 97 96 94 93 93 90 88 87 85 84 82 80 79 79 76 72 68 65 64 64 65 64 62 60 59 57 55 53 52 50 48 46 44 41
23 19 16 15 13 12 12 11 12 13 14 15 17 19 22 26 30 34 38 42 46 49 53 56 59 61 64 68 71 73 74 75 77 81 85 89 94 99 101 102 104 105 104 102 101 101 101 102 102 101 100 99 97 97 98 97 95 94 94 92 91 90 88 87 85 83 83 82 78 75 70 66 65 65 66 66 65 62 60 59 57 55 54 53 51 49 47 45
21 17 14 12 11 10 9 10 12 14 14 15 16 18 21 25 29 33 37 41 44 48 52 56 59 61 64 68 70 73 75 76 77 80 85 88 92 97 100 102 104 104 103 102 102 100 100 101 101 101 101 100 99 99 98 98 97 95 95 95 95 94 92 90 88 86 85 83 80 78 74 69 67 67 67 68 67 65 62 61 59 58 57 56 54 52 49 47
20 16 12 10 8 7 8 11 13 14 15 16 16 18 22 25 28 30 34 37 42 46 51 53 55 59 64 68 70 72 75 76 78 82 85 88 92 95 98 100 102 102 101 102 101 99 99 100 100 100 101 101 101 101 99 98 97 97 98 98 98 97 94 92 91 90 88 85 82 80 76 72 69 69 69 68 67 66 65 63 61 59 57 56 56 54 52 49
19 15 12 9 6 6 9 12 14 14 15 16 18 21 24 27 28 29 30 33 38 43 47 50 52 56 61 65 68 70 73 75 79 82 84 86 89 92 94 97 99 99 100 101 101 100 99 100 100 100 101 101 102 102 101 98 97 97 98 99 99 98 97 95 94 92 90 87 83 81 78 73 70 70 69 68 66 64 62 61 61 59 55 53 53 54 54 52
17 14 11 7 4 8 11 14 15 15 15 17 21 25 27 27 28 28 28 30 33 37 42 46 50 55 59 62 66 68 70 72 75 77 79 81 84 85 88 91 93 96 99 100 100 100 100 101 101 101 101 101 102 103 102 100 99 99 99 100 99 99 99 97 96 94 92 89 86 83 80 76 72 71 71 69 67 63 57 54 58 62 60 54 50 51 52 53
16 13 8 5 7 11 14 15 16 16 17 20 24 28 28 27 26 25 25 26 29 33 37 43 48 53 58 61 63 66 67 69 71 72 73 75 78 82 85 87 88 92 96 99 99 100 101 102 103 102 101 100 101 102 102 102 102 101 100 100 100 101 100 99 99 97 95 92 89 86 83 80 76 73 71 68 65 63 60 55 52 58 64 64 57 52 50 51
16 11 7 8 11 13 14 15 16 17 19 23 27 29 29 26 23 21 21 22 25 28 33 38 44 50 55 58 60 63 65 67 69 71 73 75 77 80 84 86 87 89 94 97 97 99 102 104 105 103 100 99 99 99 100 101 102 102 102 101 100 101 101 101 101 101 99 95 92 89 86 84 79 75 73 69 63 60 62 61 53 50 57 64 66 63 59 55
16 10 9 11 13 14 16 17 17 19 22 26 29 30 29 26 21 18 17 17 20 24 28 33 39 45 50 53 57 61 64 68 71 73 75 76 77 79 81 83 85 88 92 95 96 97 99 102 105 103 100 97 96 97 99 102 103 103 103 103 102 102 102 102 102 102 100 97 94 91 89 87 83 79 76 73 69 65 63 62 60 55 54 58 61 65 68 67
15 12 11 12 14 15 18 19 20 22 26 29 30 31 30 25 20 17 14 13 15 19 23 27 33 38 43 48 53 59 63 67 71 74 75 75 76 77 79 81 84 87 90 93 95 96 97 100 102 102 100 98 97 98 100 102 103 104 103 103 104 104 104 103 103 102 101 98 95 93 91 88 86 82 79 76 75 72 66 64 64 61 57 55 55 58 64 70
15 13 11 13 15 17 19 20 21 24 27 29 31 32 31 25 19 16 12 10 10 14 18 22 27 33 39 44 49 54 59 65 69 73 75 75 75 76 79 80 83 87 89 91 93 94 95 98 100 99 100 100 99 100 101 101 102 102 103 103 105 106 106 105 104 104 102 99 95 94 92 90 88 85 82 80 76 72 70 70 69 66 61 55 53 54 57 61
15 12 12 14 17 18 19 21 23 25 28 30 32 33 32 27 20 16 12 8 6 8 13 18 22 28 34 40 45 49 55 60 66 71 75 76 76 77 78 79 81 84 86 88 90 91 93 96 98 98 99 100 101 101 101 100 100 99 100 102 105 107 107 107 107 106 103 100 97 94 92 90 90 88 86 84 80 75 73 73 74 75 72 62 51 50 52 54
13 12 14 16 17 18 20 22 24 26 29 32 34 35 35 31 24 18 14 10 5 3 7 12 17 22 28 34 39 45 50 55 61 67 73 77 78 78 78 78 79 80 82 84 87 88 90 93 96 97 98 100 100 100 100 100 98 97 98 100 103 106 108 108 108 107 105 103 99 95 92 90 90 90 89 86 85 82 78 77 77 79 79 74 61 49 48 51
13 14 16 18 18 18 20 22 24 27 30 34 36 37 38 35 28 22 17 13 8 3 4 9 13 17 22 28 34 40 44 49 55 62 68 74 78 79 78 77 77 78 79 82 84 86 88 89 92 94 96 97 99 99 99 99 98 97 97 99 102 105 107 108 109 108 107 105 101 97 94 92 90 90 89 88 87 86 83 83 85 83 80 80 74 59 51 52
15 16 17 18 19 19 20 22 25 27 31 34 36 38 39 38 33 26 20 16 12 6 3 5 8 12 17 22 28 34 38 43 50 56 62 68 73 77 78 77 77 77 79 81 84 85 86 87 88 90 92 94 96 96 96 97 97 98 98 100 102 105 107 108 108 108 108 106 103 99 96 94 91 89 89 89 88 88 87 87 89 90 85 82 80 71 60 55
18 18 17 17 18 19 20 23 25 27 30 33 35 37 40 40 37 30 24 19 16 11 7 3 2 7 11 16 21 27 32 38 44 49 55 60 66 73 77 79 79 80 80 82 83 84 85 85 85 87 89 90 91 92 93 93 94 96 98 100 102 105 107 107 106 106 107 107 105 102 99 96 93 91 90 89 88 87 88 90 92 94 92 85 81 75 64 56
19 18 17 17 18 19 21 23 24 26 29 32 34 37 39 40 39 35 28 23 19 15 11 6 2 2 6 11 15 20 26 32 37 42 48 53 59 66 73 77 80 82 82 82 82 83 84 83 83 85 86 87 87 88 90 90 91 93 95 97 100 103 106 106 105 104 105 106 105 103 101 98 95 93 92 90 89 87 88 92 94 95 95 91 85 79 69 59
18 17 17 17 18 19 21 23 24 25 27 31 34 36 38 39 38 36 31 26 22 18 15 10 5 1 3 8 12 16 20 24 29 35 41 48 53 58 64 72 78 82 83 82 81 81 82 82 83 84 86 85 85 87 88 89 90 91 93 94 96 100 105 106 105 103 103 104 105 104 102 101 98 97 95 92 91 90 90 93 95 95 95 94 91 87 81 72
Wind_Direction
310 306 299 291 284 280 275 271 266 261 255 248 242 236 232 228 224 222 221 220 220 220 221 219 216 213 211 209 210 212 212 210 209 209 209 209 208 208 210 212 210 208 209 207 207 207 208 210 209 208 206 206 207 207 206 205 206 204 202 201 196 190 166 139 163 195 180 177 193 200 211 208 210 216 209 234 287 339 13 33 38 27 20 14 12 13 14 14
309 307 305 300 292 284 278 272 267 262 257 251 245 239 233 229 225 222 221 221 220 219 220 220 218 216 213 211 210 211 212 212 211 210 210 209 208 209 210 212 210 208 209 208 207 207 208 209 209 209 208 207 207 207 207 205 207 205 201 199 197 192 170 153 177 182 174 184 187 194 205 201 216 226 221 251 301 342 5 17 15 7 4 5 4 5 8 11
307 305 303 301 298 291 283 275 269 263 258 253 248 242 236 232 227 223 221 220 220 219 219 219 219 217 215 214 211 211 211 212 212 211 211 209 209 209 210 211 210 208 209 209 208 207 208 209 210 210 209 208 207 207 207 207 207 205 202 200 197 194 179 167 185 187 176 191 189 186 203 204 214 230 233 271 311 322 337 351 351 346 350 357 357 358 2 7
311 305 301 297 295 293 288 280 273 266 259 254 249 245 240 234 230 226 222 220 220 219 218 218 219 219 217 215 214 212 212 211 212 212 211 210 210 210 210 211 210 208 208 209 209 208 208 208 209 210 210 210 208 207 208 208 208 206 203 201 200 201 191 176 191 197 184 192 192 184 199 207 211 224 239 258 274 294 308 322 334 336 342 349 350 353 358 4
324 316 307 299 293 289 287 283 277 270 263 256 250 246 242 237 232 228 224 221 219 219 219 218 218 219 218 216 215 214 213 212 211 212 212 211 211 211 211 211 211 209 208 209 209 209 208 208 209 210 211 210 209 207 208 208 209 207 204 202 202 204 194 183 191 194 188 199 200 189 194 206 210 223 248 246 256 277 291 310 325 330 332 340 345 349 357 4
332 327 319 309 300 291 284 281 278 273 266 260 252 246 242 239 235 230 227 223 220 219 219 218 217 218 219 217 216 215 214 213 212 211 211 212 212 212 212 212 211 210 209 210 210 210 209 208 209 210 211 211 210 209 208 208 208 208 205 203 204 203 195 190 193 187 184 198 209 202 200 211 215 219 248 246 244 259 277 303 313 314 323 337 344 346 355 7
326 326 323 317 308 299 290 281 276 273 268 263 257 249 243 239 237 233 229 225 222 219 218 218 218 218 218 218 217 216 215 214 213 212 211 211 212 213 213 212 212 211 210 211 211 211 210 209 209 211 211 211 211 210 208 208 208 208 207 206 206 206 200 197 200 199 193 192 205 213 210 215 219 217 229 240 246 257 265 284 289 292 317 337 340 341 356 9
319 318 318 316 311 304 297 288 279 273 268 264 259 253 245 239 237 234 230 226 224 221 218 218 218 217 218 218 217 216 216 215 213 213 212 211 211 212 213 213 212 211 211 211 212 212 211 210 209 211 211 212 212 211 209 208 208 208 208 209 208 207 203 199 202 208 208 200 197 207 215 220 223 226 231 241 250 255 260 270 268 280 316 336 333 338 359 7
316 313 311 311 309 304 299 293 286 276 269 264 259 255 249 242 237 234 232 228 225 222 220 218 218 218 217 217 217 217 216 216 214 213 213 211 211 212 213 214 213 212 211 212 212 212 212 210 209 211 211 212 212 211 210 208 208 208 208 209 208 208 206 200 200 207 213 210 204 201 210 220 227 230 225 231 233 233 256 265 256 279 317 327 321 333 355 0
316 313 309 306 306 303 297 292 289 282 273 266 260 255 251 245 239 234 232 230 226 223 221 219 218 217 217 217 217 218 217 217 215 213 213 212 211 211 213 214 213 213 212 211 213 212 212 210 210 212 212 212 211 211 211 209 207 208 209 208 208 209 205 201 202 208 215 213 212 213 212 212 219 222 211 212 217 224 254 261 257 280 304 305 305 324 347 358
315 313 309 305 303 301 296 290 287 285 278 270 262 256 251 247 241 236 232 230 228 224 222 220 219 218 217 217 217 218 218 217 216 214 214 213 212 211 212 213 213 214 213 212 212 213 212 210 211 212 212 212 211 211 211 209 207 208 211 209 210 209 203 204 201 202 216 215 215 219 219 214 213 215 210 209 213 219 240 242 251 272 284 290 295 317 345 360
316 313 309 306 302 300 296 289 283 282 280 274 266 259 253 247 243 238 233 229 228 226 223 221 220 218 217 217 217 218 218 218 217 214 213 214 213 212 212 213 213 214 214 213 213 212 212 210 211 212 212 212 212 211 211 209 206 207 210 209 210 209 204 207 202 199 210 213 213 216 215 212 211 212 211 215 215 216 225 224 240 268 281 286 289 319 348 5
316 313 310 306 303 300 295 289 282 278 277 275 268 261 255 249 244 240 235 230 227 226 224 221 220 219 218 217 216 217 218 218 217 214 213 214 213 213 213 213 213 214 214 214 213 212 212 211 211 212 212 213 212 212 211 209 206 206 208 208 209 209 206 207 206 205 204 201 207 211 207 203 206 210 210 216 218 217 221 219 233 258 278 288 292 327 354 13
317 315 312 308 305 301 295 288 281 277 274 273 269 263 256 250 245 241 236 231 227 225 224 222 221 219 218 217 216 217 218 219 218 215 214 213 214 213 213 213 213 213 214 214 214 213 212 212 212 212 213 214 213 212 212 210 207 205 207 208 208 208 206 207 208 206 202 197 201 205 206 201 204 211 208 211 217 220 221 217 225 241 268 297 308 343 2 28
319 317 314 310 306 302 297 289 281 276 273 270 267 263 257 252 246 242 238 233 228 225 224 222 221 220 218 218 217 217 218 219 218 216 215 213 213 213 213 214 213 213 214 215 214 213 212 212 212 212 213 215 213 213 213 212 208 207 209 210 209 206 204 207 210 205 202 203 201 201 205 206 208 216 214 212 219 225 223 218 221 231 256 289 326 1 10 48
320 318 316 313 309 304 298 291 283 276 271 267 264 261 256 252 247 243 239 234 229 226 224 222 221 220 219 218 218 217 218 219 218 217 216 214 213 213 213 213 214 213 214 215 214 214 213 212 213 213 214 215 214 213 214 214 211 209 210 213 213 209 205 207 210 206 204 211 212 204 205 209 211 218 219 219 223 225 224 223 224 229 243 254 319 8 5 40
320 318 317 314 311 307 300 293 285 277 271 265 261 257 253 250 246 242 239 235 231 226 224 222 221 220 219 218 218 218 218 219 219 217 217 216 214 214 213 213 214 213 213 214 214 214 214 213 213 214 214 214 214 214 214 215 213 211 211 213 214 212 208 209 211 210 209 216 221 213 209 211 214 218 221 222 224 221 220 222 222 226 235 235 239 10 351 355
320 319 317 315 312 308 303 296 288 280 272 264 258 254 249 246 243 241 238 235 232 228 224 222 221 219 219 219 218 217 218 219 219 218 217 217 216 215 214 214 214 214 214 214 214 214 214 213 214 215 215 215 215 215 215 215 215 213 213 214 215 213 210 212 216 214 213 216 223 219 213 213 217 220 222 223 223 217 216 218 218 225 235 235 239 8 348 339
320 319 317 316 313 310 305 299 290 281 273 264 256 250 245 241 239 238 236 234 232 229 225 222 221 220 218 218 218 217 217 219 219 218 217 217 217 216 215 214 214 213 214 214 214 214 214 214 214 215 215 216 216 216 215 215 215 215 215 216 217 216 214 215 217 215 215 218 221 220 216 215 218 220 220 221 218 213 214 216 218 223 231 235 238 230 276 322
320 319 318 317 314 311 306 300 292 282 272 262 254 247 242 237 235 234 234 232 231 229 227 223 221 221 219 218 217 216 216 218 219 219 217 216 217 217 216 215 214 213 213 214 214 214 215 215 215 215 215 216 217 216 215 214 215 215 216 217 217 218 218 217 216 216 217 218 218 217 215 214 217 219 218 217 216 214 214 215 218 220 225 233 232 219 211 282
320 320 318 317 314 310 306 300 293 282 269 259 251 245 239 234 231 231 231 230 229 228 227 224 221 220 219 218 217 216 216 217 218 219 218 217 217 217 217 216 215 214 213 214 214 214 215 215 216 216 215 216 217 217 214 214 215 216 217 217 217 218 219 218 217 218 220 218 216 214 212 212 214 216 216 216 217 218 217 216 218 219 225 227 217 212 205 228
320 319 318 316 313 309 305 299 291 280 267 255 247 241 236 231 228 227 228 228 228 227 226 224 221 219 219 218 217 216 216 217 218 219 218 217 217 217 217 217 216 215 214 214 214 213 214 215 217 217 216 217 218 217 215 215 216 217 217 217 218 218 219 218 217 219 221 220 218 214 210 211 214 216 216 216 216 218 216 216 220 221 222 218 210 212 208 211
320 319 316 314 311 307 303 296 287 276 263 252 243 237 232 228 225 224 224 225 226 226 225 224 222 220 219 218 217 216 216 216 217 218 218 217 217 217 217 217 217 217 215 214 213 213 213 215 217 217 216 217 218 218 216 215 216 218 218 218 218 219 220 220 218 218 220 220 219 216 212 212 216 218 219 217 216 219 216 218 226 225 219 215 215 223 215 212
319 317 315 313 310 305 300 292 283 271 259 248 240 234 229 225 222 221 220 222 223 224 224 223 221 220 219 218 217 217 216 216 216 217 218 217 216 217 217 217 217 217 216 215 213 213 213 215 216 217 217 217 219 218 216 216 217 218 218 218 219 220 221 221 220 218 219 220 219 217 215 216 218 218 218 216 216 217 218 223 229 227 225 222 219 224 219 217
318 316 314 312 308 302 296 287 278 266 254 244 237 231 226 223 220 219 219 219 221 222 223 222 220 219 218 217 217 217 217 216 216 216 217 217 216 217 217 217 217 217 217 216 215 214 214 215 216 216 217 218 219 219 216 216 218 218 218 218 219 220 221 222 221 220 219 220 220 218 216 218 221 219 217 218 218 218 221 228 228 221 223 224 221 225 222 220
317 316 314 311 306 299 291 282 272 263 251 239 233 229 225 222 220 218 218 218 219 220 221 221 219 218 217 216 216 217 217 217 216 216 217 217 216 216 217 217 217 217 217 217 216 215 215 215 216 216 217 218 219 220 218 217 218 219 219 219 220 221 221 222 223 222 220 220 221 220 217 219 222 221 219 220 221 222 225 229 225 215 215 220 225 232 225 217
318 316 313 309 304 297 288 278 268 259 249 238 231 228 225 223 221 219 218 218 218 219 220 220 218 218 217 216 216 216 217 217 217 216 216 217 216 216 216 217 218 218 217 217 216 216 217 216 216 216 216 218 219 220 219 217 218 219 220 220 220 221 222 222 223 224 223 221 222 221 219 220 223 223 222 223 224 225 226 227 226 223 221 222 227 233 229 220
317 315 311 308 303 296 286 275 265 255 247 239 231 227 225 224 223 221 219 219 219 218 219 219 218 217 216 215 215 216 216 217 217 217 216 216 216 216 216 217 217 218 218 217 217 217 218 218 217 216 216 217 218 220 221 219 218 220 220 220 220 221 223 222 223 225 224 223 223 223 222 221 225 226 225 226 227 228 229 229 230 232 232 229 228 233 234 230
316 314 310 307 300 292 282 271 261 252 244 239 232 228 226 225 225 224 223 221 220 219 219 219 218 217 216 215 215 216 216 216 217 218 217 216 216 216 216 216 217 218 218 217 217 217 219 219 218 217 216 217 218 220 220 219 219 220 220 220 220 221 222 222 223 224 224 224 224 225 224 223 226 230 229 229 230 231 232 232 234 235 236 235 233 234 236 236
315 312 308 302 293 286 278 267 258 250 243 240 235 231 230 228 227 227 226 223 221 220 220 219 218 217 216 216 216 216 216 216 217 218 217 216 217 217 216 216 217 217 217 217 217 218 218 219 219 218 217 217 217 219 220 219 220 220 220 220 220 221 222 222 223 223 223 224 225 226 227 226 227 231 232 233 234 234 234 235 235 237 239 240 238 235 236 239
316 312 307 299 290 282 276 266 257 250 245 243 240 237 235 233 231 229 228 226 224 222 221 220 218 217 217 216 216 215 215 216 216 217 218 217 217 217 217 217 217 217 217 217 217 218 218 218 219 219 218 218 218 218 219 220 221 221 221 220 220 221 222 222 223 223 223 224 226 227 228 229 231 233 235 236 237 236 236 236 236 237 239 241 241 236 236 241
318 313 307 299 290 283 277 268 261 255 250 246 243 241 239 237 235 232 230 229 227 224 223 221 219 218 218 217 217 216 215 216 216 217 217 217 217 217 217 216 216 217 216 216 217 217 218 218 218 218 218 218 219 219 219 220 221 221 221 221 221 222 222 222 223 223 222 223 225 226 227 229 232 234 235 237 238 237 238 238 237 237 237 239 240 237 237 240
319 313 306 297 290 286 278 271 264 257 252 248 245 243 240 238 237 235 232 231 230 227 225 224 221 220 219 218 218 217 216 216 216 216 217 217 217 217 217 216 216 217 216 216 217 217 217 218 218 219 218 218 219 220 220 220 221 222 222 222 222 223 223 223 224 224 223 224 224 224 225 228 230 233 235 237 239 239 239 239 239 239 238 239 240 239 237 238
321 314 302 293 291 287 278 272 267 259 254 250 247 244 241 239 238 236 235 233 232 230 228 226 223 221 220 219 218 218 217 216 215 216 217 217 217 216 217 216 216 217 217 216 216 216 217 218 218 219 219 219 219 219 220 221 221 222 222 222 222 223 224 224 224 225 225 225 224 224 225 227 229 231 233 234 237 238 238 239 240 240 239 239 240 240 239 238
322 313 300 295 294 287 279 276 273 266 260 256 252 248 243 241 239 238 236 234 233 231 230 228 226 223 222 220 219 218 217 216 215 215 216 217 216 216 216 216 216 216 217 217 216 216 217 218 218 219 219 219 219 219 220 221 221 222 223 223 223 223 224 224 224 224 225 225 223 222 224 226 229 231 232 233 235 236 238 238 240 240 239 239 239 239 239 238
321 312 304 303 297 287 282 281 279 276 271 267 261 254 249 245 243 241 240 237 236 234 232 231 229 227 225 223 221 219 217 216 215 215 215 216 216 216 215 215 216 216 216 217 217 216 216 217 218 219 219 220 220 220 221 221 221 222 223 223 223 223 223 224 224 224 225 225 222 222 222 224 227 230 232 233 234 235 237 238 239 240 240 239 239 239 239 239
322 317 312 308 299 290 285 280 282 285 286 282 273 265 260 254 249 246 243 241 239 238 235 232 230 229 228 226 224 221 219 217 216 215 215 216 216 216 216 216 217 217 217 217 217 217 217 217 218 218 219 220 221 221 222 221 221 221 223 224 224 224 223 224 224 225 226 225 222 221 221 222 225 229 231 233 234 234 235 237 239 241 242 241 240 240 240 240
328 325 320 311 299 289 278 278 286 294 297 294 288 285 281 273 263 255 248 244 240 239 237 235 231 230 229 228 226 223 221 218 217 217 216 216 217 217 216 217 217 217 217 218 218 218 218 218 218 218 219 220 220 222 222 223 222 222 223 224 225 225 224 224 225 225 226 225 223 222 222 221 224 228 230 232 234 235 236 237 238 240 243 244 244 242 241 240
334 331 326 319 305 288 283 288 300 305 307 307 305 304 298 291 281 270 258 249 242 238 237 236 233 231 230 229 228 226 224 221 219 219 218 217 217 217 217 217 217 217 218 218 218 218 219 219 218 218 218 219 220 222 222 222 223 224 224 225 226 226 226 225 225 226 226 226 224 223 223 222 223 226 228 230 232 234 237 239 240 240 242 244 243 242 241 240
340 335 332 328 303 291 294 303 313 315 317 319 318 314 307 300 292 281 268 256 246 239 235 232 230 229 229 228 227 226 226 224 222 221 220 220 219 219 219 219 218 217 218 219 219 218 219 220 219 219 218 218 219 221 222 222 223 224 224 225 226 227 227 227 226 226 226 226 225 224 224 223 222 224 227 229 231 232 234 238 243 241 240 241 241 238 238 238
344 342 338 314 289 298 307 315 322 325 327 329 326 321 315 308 299 286 274 261 249 241 234 229 227 226 227 226 225 224 224 224 224 222 221 220 220 219 219 219 219 218 218 219 219 219 219 220 220 219 219 219 219 220 221 222 222 223 224 225 226 227 227 227 227 227 226 225 225 225 224 224 222 223 227 229 231 233 232 232 240 244 242 240 240 238 236 235
348 346 328 303 304 313 320 325 330 333 335 335 332 329 324 318 307 292 276 261 248 239 232 228 224 223 224 224 224 223 221 221 222 221 219 217 217 218 218 217 218 218 218 218 219 219 219 220 221 220 219 220 220 220 221 222 222 223 224 225 226 227 228 228 228 227 226 225 224 224 224 224 223 223 225 226 227 230 230 229 234 242 244 243 242 240 238 237
350 339 318 317 322 327 330 333 338 341 341 340 338 338 336 329 318 302 283 263 247 236 229 225 223 222 223 222 221 221 220 218 219 219 219 217 214 214 216 217 217 218 218 217 217 219 219 220 221 220 219 220 220 221 221 221 222 222 224 224 226 227 228 229 230 229 228 226 225 224 225 225 224 223 224 224 224 224 226 228 231 236 242 244 244 243 241 241
346 333 326 331 331 332 337 340 343 345 345 344 344 346 346 340 329 314 294 270 248 235 227 222 220 220 219 219 219 219 219 218 217 218 219 218 215 212 213 215 216 218 218 218 217 218 219 220 221 220 219 219 220 221 221 221 221 222 223 224 225 226 227 228 230 231 230 228 226 225 225 225 225 223 223 224 224 225 224 224 228 235 239 241 244 244 243 242
341 332 331 332 332 337 341 342 345 347 346 346 350 353 355 351 341 328 311 284 254 237 227 220 216 215 215 216 216 217 217 217 217 217 217 218 217 214 213 212 213 216 218 218 218 218 219 220 221 220 220 219 219 220 221 222 222 222 222 223 224 225 227 228 229 230 230 229 228 226 225 225 225 225 224 223 223 223 223 222 224 230 234 238 242 243 241 241
338 331 327 330 335 341 343 342 345 347 346 349 354 359 1 1 354 345 333 312 275 242 229 219 212 211 213 214 214 215 215 216 216 216 217 217 217 216 215 212 212 214 217 218 219 218 219 220 221 221 221 220 219 220 221 222 223 223 223 224 224 225 226 227 228 230 230 229 228 227 226 226 226 226 225 224 223 222 222 222 222 226 231 234 238 239 237 237
336 329 325 330 340 343 343 343 344 346 349 352 357 1 5 7 5 359 352 343 326 266 233 223 213 211 212 212 213 214 214 214 215 215 216 216 216 217 216 214 212 213 215 218 219 219 219 220 221 221 222 221 221 221 221 222 223 223 224 225 225 225 226 227 228 229 230 230 229 227 227 227 227 227 227 225 225 224 223 224 224 225 228 230 232 235 236 235
329 326 325 333 341 343 342 343 344 347 351 355 358 2 6 9 9 8 6 2 358 346 236 221 212 210 210 210 211 213 213 214 215 215 215 215 216 216 216 216 214 213 213 216 218 219 220 220 221 222 222 223 222 222 222 222 222 223 224 225 226 226 226 226 227 229 230 230 229 228 227 226 227 228 228 227 226 226 224 224 226 226 226 227 229 233 238 236
324 324 327 334 340 340 341 343 345 348 352 355 359 2 5 8 10 11 13 13 11 5 310 239 215 209 209 209 211 212 213 213 214 215 216 216 216 216 216 216 215 214 214 214 216 218 219 220 221 222 222 223 223 222 222 223 223 223 224 225 226 226 226 226 226 228 229 230 230 229 228 227 226 227 228 229 228 227 226 226 227 228 227 226 227 231 236 234
326 327 331 335 338 338 340 344 346 349 351 354 358 2 4 6 7 10 14 16 16 12 357 328 237 213 209 208 210 212 212 212 214 215 216 216 216 216 216 216 215 215 215 214 215 217 218 219 220 222 223 222 223 222 222 223 224 224 225 225 226 227 227 227 227 227 229 230 231 230 229 228 227 227 228 229 229 229 228 228 228 229 229 228 227 229 231 229
330 331 333 335 337 338 340 344 346 348 351 354 357 1 4 5 5 6 10 14 17 16 11 7 10 216 210 205 206 209 210 211 212 215 216 216 215 216 216 216 216 216 216 215 215 215 217 218 219 221 222 222 222 222 221 222 223 224 225 226 226 227 227 227 227 227 228 229 230 230 230 229 228 227 227 228 228 229 230 230 230 230 230 230 228 225 225 225
332 331 333 335 337 337 339 343 346 347 350 353 356 359 3 4 3 3 4 8 14 17 15 12 18 59 199 202 203 206 207 207 209 213 214 215 215 215 216 216 216 217 217 217 216 216 217 217 218 220 222 221 221 221 221 221 222 223 225 226 227 227 227 227 226 226 226 227 228 228 228 229 228 228 227 228 228 228 229 231 232 232 232 232 230 227 225 227
Height
10916 10915 10915 10914 10913 10913 10913 10914 10914 10914 10914 10915 10915 10916 10918 10920 10922 10924 10926 10928 10930 10932 10934 10936 10938 10940 10942 10944 10947 10949 10952 10954 10957 10961 10963 10967 10972 10975 10976 10977 10981 10985 10988 10990 10993 10995 10997 10999 11002 11004 11006 11009 11011 11014 11017 11019 11020 11022 11024 11027 11029 11031 11032 11034 11033 11034 11035 11035 11037 11037 11038 11038 11038 11039 11039 11038 11036 11035 11036 11036 11035 11035 11034 11034 11033 11032 11031 11029
10914 10913 10912 10911 10910 10910 10909 10909 10910 10910 10910 10911 10911 10912 10913 10915 10917 10919 10921 10924 10925 10927 10929 10932 10934 10936 10938 10940 10942 10945 10948 10951 10954 10957 10960 10964 10968 10971 10972 10974 10978 10982 10984 10987 10990 10992 10995 10997 10999 11002 11004 11007 11009 11012 11015 11017 11019 11021 11024 11026 11028 11030 11032 11032 11032 11033 11034 11035 11037 11037 11038 11038 11038 11039 11040 11038 11037 11037 11037 11037 11037 11036 11035 11035 11034 11033 11032 11031
10911 10910 10908 10908 10907 10906 10905 10905 10905 10905 10906 10906 10907 10908 10909 10910 10912 10914 10916 10918 10920 10922 10925 10927 10930 10932 10934 10936 10938 10940 10943 10947 10951 10953 10957 10961 10964 10967 10969 10971 10975 10978 10980 10983 10986 10989 10992 10994 10997 10999 11002 11004 11007 11011 11013 11016 11018 11020 11023 11024 11026 11029 11031 11032 11031 11032 11033 11035 11036 11038 11039 11039 11040 11040 11040 11039 11038 11038 11038 11038 11038 11037 11036 11036 11035 11034 11033 11032
10908 10906 10905 10904 10903 10902 10902 10901 10900 10900 10901 10901 10902 10903 10904 10905 10907 10908 10910 10913 10915 10917 10920 10922 10925 10927 10929 10932 10934 10936 10938 10942 10946 10949 10953 10957 10960 10963 10965 10967 10971 10974 10977 10980 10982 10985 10988 10991 10994 10997 10999 11002 11006 11009 11012 11014 11017 11019 11022 11023 11025 11027 11029 11031 11031 11032 11034 11035 11036 11038 11040 11041 11042 11042 11041 11040 11039 11038 11039 11039 11039 11038 11037 11036 11036 11035 11034 11033
10905 10903 10901 10900 10899 10898 10898 10897 10896 10895 10895 10896 10897 10898 10899 10901 10902 10903 10905 10907 10910 10912 10915 10917 10920 10922 10925 10927 10929 10931 10934 10937 10941 10945 10949 10953 10956 10959 10961 10963 10967 10970 10973 10976 10979 10982 10985 10989 10992 10994 10997 11000 11004 11007 11009 11012 11015 11017 11020 11022 11024 11026 11028 11030 11031 11032 11034 11035 11036 11038 11040 11041 11042 11042 11041 11040 11040 11039 11039 11039 11039 11039 11038 11037 11036 11035 11034 11034
10902 10900 10898 10896 10894 10893 10893 10892 10892 10891 10890 10891 10892 10893 10894 10896 10897 10898 10900 10902 10904 10907 10910 10912 10914 10917 10920 10922 10925 10927 10929 10933 10936 10940 10944 10948 10951 10954 10957 10960 10963 10967 10970 10973 10975 10978 10982 10986 10989 10992 10995 10999 11002 11004 11006 11009 11012 11015 11017 11020 11022 11024 11027 11028 11030 11032 11034 11035 11037 11038 11039 11040 11041 11042 11041 11040 11040 11040 11040 11039 11039 11039 11039 11038 11037 11036 11035 11034
10899 10897 10895 10892 10890 10888 10887 10887 10886 10886 10886 10885 10886 10887 10889 10890 10891 10892 10894 10896 10898 10901 10904 10907 10909 10911 10914 10917 10920 10922 10924 10927 10931 10935 10939 10943 10947 10950 10952 10956 10959 10963 10967 10969 10972 10975 10979 10983 10987 10990 10993 10996 10998 11001 11004 11007 11010 11012 11015 11017 11019 11022 11025 11027 11029 11031 11034 11036 11036 11038 11039 11040 11041 11041 11041 11040 11040 11039 11039 11039 11039 11039 11039 11039 11038 11037 11036 11034
10895 10893 10891 10889 10886 10884 10882 10881 10881 10880 10880 10880 10880 10881 10882 10884 10885 10886 10888 10890 10892 10895 10898 10901 10904 10906 10909 10912 10915 10917 10919 10921 10925 10930 10933 10938 10942 10945 10948 10951 10955 10960 10963 10966 10968 10972 10975 10980 10985 10987 10990 10992 10994 10998 11001 11004 11008 11011 11013 11015 11017 11020 11023 11025 11028 11031 11033 11035 11036 11037 11039 11040 11041 11041 11042 11042 11040 11039 11038 11038 11038 11039 11039 11039 11038 11037 11036 11035
10890 10888 10886 10885 10883 10880 10878 10876 10874 10874 10874 10874 10874 10875 10876 10877 10879 10880 10882 10884 10886 10889 10892 10895 10898 10900 10903 10906 10909 10911 10913 10916 10921 10924 10928 10932 10936 10940 10943 10947 10951 10955 10958 10962 10964 10968 10971 10977 10982 10984 10986 10989 10992 10996 10999 11002 11006 11008 11010 11013 11015 11018 11021 11023 11026 11029 11032 11034 11035 11037 11038 11040 11042 11041 11041 11041 11039 11037 11037 11037 11038 11038 11038 11038 11038 11037 11036 11035
10885 10883 10881 10879 10877 10875 10873 10871 10868 10867 10867 10867 10868 10869 10869 10870 10872 10874 10875 10877 10880 10883 10886 10889 10892 10894 10897 10900 10902 10905 10908 10911 10915 10919 10923 10927 10931 10935 10938 10942 10947 10950 10954 10957 10960 10963 10968 10974 10978 10980 10982 10986 10989 10993 10996 10999 11003 11005 11007 11010 11013 11015 11018 11020 11023 11027 11030 11032 11034 11035 11036 11040 11040 11038 11038 11037 11035 11036 11036 11037 11037 11037 11038 11038 11038 11037 11036 11035
10880 10877 10875 10873 10871 10869 10867 10866 10863 10861 10860 10860 10861 10861 10862 10863 10864 10866 10869 10871 10873 10877 10879 10882 10885 10888 10891 10894 10896 10899 10902 10905 10909 10914 10918 10922 10927 10930 10933 10937 10942 10946 10949 10952 10955 10960 10965 10970 10974 10976 10979 10982 10985 10989 10991 10995 10999 11002 11004 11007 11011 11013 11015 11017 11019 11023 11026 11028 11031 11033 11035 11038 11036 11033 11035 11034 11034 11035 11036 11036 11037 11037 11038 11038 11038 11037 11036 11035
10873 10871 10869 10866 10864 10862 10861 10859 10857 10855 10853 10852 10853 10854 10855 10856 10857 10859 10861 10864 10867 10869 10872 10875 10878 10881 10884 10888 10891 10893 10896 10899 10903 10909 10913 10917 10922 10925 10929 10932 10937 10940 10944 10947 10951 10956 10961 10966 10969 10972 10975 10977 10980 10983 10985 10989 10994 10998 11000 11004 11008 11010 11012 11014 11015 11016 11019 11023 11027 11029 11032 11035 11032 11030 11032 11032 11033 11035 11035 11036 11037 11037 11038 11038 11038 11037 11036 11035
10866 10864 10862 10859 10857 10855 10853 10852 10850 10848 10846 10845 10845 10846 10847 10848 10849 10851 10853 10857 10860 10862 10865 10868 10871 10874 10878 10882 10885 10886 10888 10891 10896 10903 10907 10911 10916 10920 10924 10927 10932 10935 10939 10942 10947 10952 10957 10961 10964 10967 10970 10972 10974 10976 10981 10986 10990 10994 10997 11001 11004 11006 11009 11011 11010 11010 11012 11016 11020 11024 11028 11031 11029 11028 11030 11032 11033 11034 11035 11036 11036 11037 11038 11038 11038 11037 11035 11035
10858 10856 10854 10852 10850 10847 10845 10844 10842 10840 10839 10838 10837 10837 10838 10840 10841 10843 10846 10849 10852 10855 10858 10861 10864 10867 10870 10874 10877 10878 10881 10884 10891 10898 10902 10906 10909 10914 10918 10921 10926 10930 10933 10937 10942 10947 10952 10956 10960 10963 10966 10966 10969 10974 10979 10984 10988 10992 10994 10996 10999 11002 11005 11006 11006 11007 11010 11012 11013 11017 11023 11028 11027 11027 11030 11032 11032 11033 11034 11035 11036 11037 11039 11038 11038 11037 11035 11035
10848 10847 10845 10843 10841 10839 10837 10835 10833 10832 10831 10829 10829 10829 10829 10831 10833 10835 10838 10840 10844 10847 10850 10852 10855 10858 10862 10866 10868 10871 10874 10878 10885 10890 10895 10899 10903 10907 10912 10915 10920 10924 10928 10933 10937 10942 10947 10951 10955 10958 10960 10961 10967 10973 10976 10980 10985 10989 10991 10992 10994 10997 11000 11001 11003 11007 11010 11010 11010 11012 11018 11024 11026 11025 11027 11029 11031 11032 11034 11034 11035 11037 11038 11039 11038 11036 11036 11035
10839 10837 10835 10833 10831 10829 10827 10825 10824 10822 10821 10820 10820 10820 10820 10822 10824 10826 10829 10831 10834 10838 10841 10843 10846 10850 10854 10857 10860 10864 10868 10871 10878 10884 10888 10892 10896 10901 10905 10910 10914 10919 10923 10928 10932 10937 10942 10946 10950 10952 10954 10957 10964 10969 10972 10976 10981 10984 10986 10988 10990 10994 10997 10999 11001 11004 11007 11009 11009 11011 11015 11021 11024 11023 11025 11027 11029 11031 11032 11033 11034 11035 11037 11038 11037 11036 11036 11036
10830 10827 10824 10822 10821 10818 10816 10815 10813 10812 10811 10810 10810 10810 10811 10813 10815 10816 10819 10822 10825 10828 10831 10834 10837 10841 10845 10849 10853 10859 10863 10867 10872 10879 10882 10886 10891 10895 10899 10904 10908 10913 10918 10922 10927 10932 10937 10941 10943 10946 10949 10954 10960 10964 10967 10970 10974 10978 10980 10982 10986 10992 10996 10998 10999 11002 11005 11007 11009 11011 11013 11017 11020 11021 11023 11025 11027 11029 11030 11031 11032 11034 11036 11037 11036 11036 11036 11036
10820 10817 10814 10811 10809 10807 10805 10803 10802 10801 10800 10800 10800 10800 10801 10803 10804 10806 10809 10812 10816 10819 10822 10825 10828 10832 10837 10842 10846 10853 10859 10861 10866 10872 10876 10880 10885 10889 10894 10898 10903 10908 10912 10917 10921 10926 10930 10934 10937 10941 10946 10951 10956 10958 10961 10964 10969 10973 10977 10980 10984 10988 10993 10996 10997 11000 11004 11006 11008 11010 11012 11014 11017 11019 11020 11023 11025 11027 11028 11030 11031 11033 11034 11035 11035 11035 11036 11036
10809 10806 10802 10799 10797 10795 10792 10790 10790 10789 10788 10788 10789 10790 10791 10792 10794 10796 10799 10803 10807 10809 10812 10815 10818 10823 10829 10833 10839 10847 10851 10853 10856 10863 10869 10874 10878 10883 10887 10892 10897 10902 10906 10911 10915 10920 10924 10929 10933 10937 10942 10946 10948 10950 10954 10960 10966 10971 10976 10979 10982 10985 10990 10992 10994 10997 11001 11004 11006 11008 11010 11012 11014 11016 11018 11021 11023 11025 11027 11028 11030 11032 11033 11034 11034 11035 11035 11036
10798 10794 10790 10787 10784 10782 10779 10777 10776 10776 10776 10776 10777 10778 10780 10782 10783 10786 10790 10794 10797 10799 10801 10805 10811 10816 10822 10826 10832 10839 10842 10844 10849 10854 10860 10866 10870 10875 10880 10884 10890 10895 10900 10904 10908 10914 10919 10924 10928 10931 10935 10938 10940 10943 10950 10956 10961 10967 10971 10973 10976 10980 10983 10986 10989 10993 10996 11000 11004 11006 11007 11009 11011 11014 11016 11018 11020 11022 11024 11026 11028 11030 11031 11032 11033 11034 11035 11036
10787 10782 10778 10774 10771 10768 10765 10763 10762 10763 10763 10764 10765 10767 10769 10771 10772 10775 10780 10784 10786 10789 10792 10797 10803 10808 10813 10818 10824 10831 10834 10837 10840 10845 10852 10858 10863 10867 10872 10878 10883 10888 10892 10896 10902 10909 10915 10919 10920 10923 10928 10932 10933 10938 10946 10951 10956 10960 10963 10967 10972 10975 10977 10981 10986 10988 10991 10996 11000 11002 11004 11006 11009 11011 11014 11016 11018 11021 11023 11025 11026 11028 11029 11030 11032 11033 11034 11035
10774 10770 10765 10761 10757 10754 10751 10749 10749 10749 10750 10752 10753 10755 10758 10759 10761 10766 10771 10774 10776 10779 10783 10788 10793 10799 10804 10808 10815 10821 10825 10828 10833 10837 10843 10850 10855 10859 10865 10871 10875 10879 10884 10890 10898 10905 10909 10911 10912 10917 10923 10926 10928 10933 10941 10947 10951 10954 10957 10963 10969 10971 10973 10977 10980 10983 10987 10992 10996 10999 11001 11004 11007 11009 11011 11014 11016 11019 11022 11023 11024 11025 11027 11028 11030 11032 11033 11035
10761 10757 10752 10747 10743 10739 10737 10736 10735 10736 10738 10739 10741 10743 10746 10748 10751 10756 10760 10763 10767 10770 10775 10779 10785 10791 10795 10800 10807 10811 10814 10819 10824 10829 10834 10841 10846 10851 10858 10864 10867 10872 10879 10886 10893 10898 10901 10902 10904 10910 10916 10920 10922 10927 10936 10942 10945 10948 10953 10960 10964 10966 10968 10971 10974 10978 10983 10987 10992 10995 10998 11001 11004 11006 11009 11012 11015 11017 11019 11020 11021 11023 11025 11027 11029 11030 11032 11033
10748 10743 10738 10734 10730 10726 10724 10723 10723 10724 10726 10728 10730 10732 10734 10737 10740 10745 10749 10754 10757 10761 10766 10771 10776 10782 10786 10793 10799 10801 10804 10810 10815 10819 10824 10830 10837 10843 10850 10855 10860 10866 10872 10878 10885 10890 10892 10893 10897 10904 10910 10914 10916 10921 10931 10937 10939 10942 10947 10954 10957 10959 10963 10966 10970 10975 10978 10981 10986 10991 10994 10998 11001 11004 11006 11009 11013 11015 11016 11016 11018 11020 11023 11026 11028 11029 11031 11032
10734 10729 10725 10721 10718 10715 10713 10712 10712 10713 10715 10717 10719 10721 10724 10726 10730 10734 10739 10744 10748 10752 10757 10761 10767 10771 10777 10783 10787 10790 10795 10800 10805 10809 10813 10820 10829 10835 10840 10846 10851 10857 10863 10869 10876 10881 10883 10885 10892 10899 10904 10908 10911 10916 10925 10931 10932 10936 10941 10946 10949 10953 10957 10960 10964 10970 10973 10977 10981 10986 10991 10994 10998 11001 11003 11006 11010 11011 11012 11013 11016 11019 11022 11025 11027 11028 11030 11031
10721 10716 10713 10710 10708 10706 10704 10704 10703 10703 10706 10708 10709 10712 10714 10717 10721 10725 10730 10735 10739 10743 10747 10751 10757 10761 10766 10772 10777 10782 10786 10789 10794 10800 10805 10812 10820 10825 10831 10837 10842 10848 10854 10860 10868 10873 10875 10880 10886 10893 10898 10903 10905 10910 10918 10924 10926 10930 10935 10939 10944 10948 10950 10954 10960 10963 10968 10973 10977 10982 10987 10991 10993 10997 11000 11002 11005 11007 11009 11010 11014 11017 11020 11023 11025 11027 11029 11030
10710 10705 10703 10701 10699 10697 10697 10696 10696 10696 10698 10700 10702 10704 10707 10710 10713 10717 10721 10725 10729 10733 10736 10741 10747 10751 10758 10764 10769 10773 10776 10780 10786 10791 10797 10805 10811 10817 10824 10829 10833 10839 10845 10853 10861 10866 10869 10874 10879 10886 10892 10896 10900 10904 10910 10916 10921 10925 10928 10931 10938 10942 10944 10951 10955 10957 10963 10969 10972 10978 10984 10987 10989 10993 10996 10998 11001 11003 11006 11008 11011 11015 11019 11022 11024 11027 11029 11030
10700 10697 10695 10693 10691 10690 10690 10690 10690 10691 10692 10693 10696 10698 10700 10704 10706 10709 10713 10715 10719 10724 10727 10732 10738 10743 10749 10754 10757 10761 10766 10771 10777 10782 10789 10796 10802 10808 10814 10819 10824 10831 10838 10848 10856 10859 10862 10867 10872 10879 10885 10890 10894 10896 10900 10909 10916 10917 10919 10925 10933 10936 10940 10947 10949 10951 10958 10964 10968 10974 10979 10983 10986 10989 10991 10994 10997 11000 11003 11006 11009 11012 11016 11020 11023 11026 11028 11029
10692 10690 10687 10686 10685 10684 10684 10684 10685 10686 10686 10688 10690 10692 10695 10697 10700 10702 10704 10707 10711 10715 10719 10724 10730 10735 10739 10743 10746 10751 10757 10763 10768 10773 10780 10788 10793 10799 10804 10810 10816 10823 10832 10842 10848 10851 10854 10859 10864 10871 10878 10883 10886 10888 10894 10904 10907 10907 10911 10919 10926 10931 10934 10939 10942 10945 10952 10959 10964 10969 10973 10979 10982 10983 10986 10990 10993 10997 11000 11004 11006 11010 11014 11017 11021 11024 11026 11028
10685 10683 10681 10680 10679 10679 10679 10680 10680 10681 10682 10683 10685 10687 10690 10691 10693 10695 10697 10700 10704 10708 10711 10716 10721 10726 10730 10733 10738 10743 10749 10755 10760 10764 10771 10779 10785 10790 10796 10802 10809 10817 10826 10834 10838 10841 10845 10850 10856 10863 10870 10874 10877 10880 10886 10893 10895 10899 10906 10912 10919 10925 10927 10931 10936 10940 10947 10954 10960 10965 10970 10975 10977 10978 10982 10986 10989 10993 10997 11001 11004 11007 11011 11014 11018 11022 11024 11026
10679 10677 10676 10675 10674 10674 10674 10675 10676 10677 10678 10679 10680 10682 10684 10686 10687 10689 10691 10694 10697 10700 10703 10707 10712 10717 10720 10724 10729 10734 10740 10746 10751 10755 10761 10769 10775 10780 10787 10795 10802 10809 10817 10823 10826 10830 10834 10839 10846 10854 10861 10865 10868 10874 10879 10884 10889 10894 10899 10905 10913 10918 10919 10925 10930 10935 10944 10952 10957 10961 10966 10970 10973 10974 10978 10982 10985 10990 10993 10997 11001 11004 11008 11011 11015 11019 11021 11023
10674 10672 10671 10671 10670 10670 10670 10671 10672 10673 10674 10675 10676 10678 10679 10681 10682 10683 10685 10686 10689 10692 10695 10699 10704 10709 10712 10717 10721 10726 10731 10735 10741 10745 10750 10758 10765 10770 10778 10786 10793 10799 10805 10808 10811 10816 10823 10829 10835 10841 10848 10855 10862 10867 10873 10879 10883 10888 10893 10900 10907 10910 10913 10920 10925 10930 10940 10946 10949 10955 10962 10966 10967 10969 10974 10977 10981 10985 10989 10993 10997 11001 11004 11008 11012 11015 11018 11021
10669 10668 10667 10667 10667 10667 10667 10667 10668 10669 10670 10671 10672 10674 10675 10676 10676 10676 10678 10680 10682 10685 10688 10691 10696 10701 10705 10709 10714 10718 10722 10726 10732 10737 10742 10749 10755 10762 10769 10776 10782 10785 10789 10793 10798 10805 10811 10818 10826 10832 10839 10848 10855 10861 10867 10872 10876 10880 10887 10894 10900 10904 10909 10915 10921 10928 10935 10938 10942 10951 10956 10959 10961 10965 10969 10971 10975 10980 10984 10989 10993 10996 11000 11004 11008 11011 11014 11017
10666 10665 10664 10663 10663 10663 10663 10664 10664 10666 10667 10667 10668 10669 10670 10670 10670 10671 10672 10674 10675 10678 10680 10683 10687 10692 10696 10700 10705 10708 10712 10718 10725 10729 10733 10738 10744 10751 10757 10763 10768 10770 10774 10779 10785 10794 10802 10810 10819 10825 10833 10841 10847 10852 10857 10863 10869 10875 10881 10887 10893 10898 10903 10909 10916 10922 10927 10929 10937 10946 10952 10954 10957 10959 10962 10965 10970 10974 10979 10984 10988 10991 10996 11000 11003 11007 11010 11014
10662 10662 10661 10661 10660 10660 10660 10660 10661 10662 10663 10664 10664 10665 10665 10665 10665 10665 10666 10667 10668 10670 10672 10674 10677 10683 10686 10690 10694 10697 10702 10710 10714 10717 10721 10724 10729 10735 10740 10746 10750 10753 10760 10768 10777 10787 10797 10805 10811 10818 10826 10833 10839 10844 10848 10855 10863 10867 10871 10879 10885 10891 10896 10901 10907 10913 10916 10919 10930 10942 10948 10951 10952 10953 10957 10961 10965 10969 10975 10979 10983 10986 10991 10995 10999 11003 11007 11011
10660 10659 10658 10658 10658 10657 10658 10658 10658 10659 10660 10660 10660 10660 10660 10659 10659 10659 10659 10660 10661 10663 10664 10666 10670 10674 10677 10679 10683 10687 10693 10699 10703 10706 10708 10710 10714 10719 10725 10731 10734 10740 10751 10761 10770 10782 10790 10796 10804 10812 10820 10826 10832 10837 10841 10848 10856 10861 10866 10873 10877 10882 10887 10891 10897 10903 10905 10912 10926 10938 10943 10946 10947 10948 10952 10956 10960 10966 10970 10974 10979 10983 10987 10991 10995 10999 11003 11007
10657 10657 10656 10655 10655 10655 10655 10655 10656 10656 10656 10656 10655 10655 10654 10653 10653 10652 10652 10653 10654 10655 10655 10657 10661 10665 10667 10669 10673 10678 10684 10690 10694 10695 10696 10700 10703 10708 10717 10723 10728 10739 10752 10759 10766 10777 10784 10789 10797 10806 10813 10819 10825 10830 10834 10840 10848 10854 10858 10862 10866 10871 10877 10883 10890 10895 10897 10907 10922 10930 10936 10941 10942 10944 10947 10950 10955 10961 10966 10971 10976 10980 10983 10987 10992 10996 11000 11004
10654 10654 10654 10653 10653 10653 10653 10653 10653 10653 10652 10652 10651 10650 10647 10646 10645 10644 10644 10645 10645 10645 10645 10648 10653 10656 10656 10657 10662 10668 10674 10680 10683 10683 10686 10691 10694 10702 10713 10719 10727 10741 10750 10756 10763 10774 10779 10783 10791 10799 10804 10811 10817 10821 10828 10835 10842 10848 10850 10852 10857 10862 10871 10877 10882 10887 10892 10902 10915 10923 10930 10937 10939 10940 10943 10946 10951 10956 10962 10968 10973 10976 10979 10983 10988 10992 10996 11000
10653 10651 10651 10651 10651 10651 10651 10651 10650 10650 10649 10648 10646 10644 10642 10639 10636 10635 10636 10635 10635 10636 10637 10640 10645 10646 10647 10649 10654 10659 10664 10670 10673 10675 10682 10688 10692 10702 10711 10716 10726 10738 10744 10749 10758 10767 10772 10775 10783 10790 10794 10802 10809 10812 10821 10830 10836 10841 10844 10847 10851 10856 10863 10869 10874 10880 10887 10896 10907 10916 10923 10931 10935 10936 10937 10941 10946 10951 10959 10966 10969 10972 10976 10978 10982 10986 10990 10994
10651 10650 10649 10649 10649 10649 10648 10648 10648 10647 10646 10644 10642 10639 10636 10632 10629 10627 10626 10626 10626 10627 10629 10631 10634 10635 10637 10640 10644 10649 10656 10662 10667 10674 10683 10690 10696 10705 10712 10717 10725 10733 10738 10743 10751 10759 10762 10766 10773 10779 10786 10795 10800 10804 10814 10822 10826 10831 10834 10839 10844 10847 10853 10861 10867 10873 10879 10888 10899 10907 10914 10923 10929 10930 10932 10936 10942 10948 10958 10964 10964 10965 10969 10971 10974 10978 10983 10988
10650 10649 10648 10648 10647 10646 10646 10646 10645 10644 10642 10640 10638 10634 10629 10626 10623 10619 10617 10617 10617 10618 10620 10622 10624 10625 10626 10630 10635 10641 10649 10656 10663 10672 10680 10687 10694 10700 10705 10711 10719 10725 10730 10736 10743 10748 10752 10755 10761 10769 10780 10788 10792 10797 10807 10813 10817 10822 10827 10832 10837 10838 10843 10850 10855 10860 10869 10879 10890 10899 10906 10915 10922 10927 10930 10936 10943 10949 10956 10960 10958 10957 10960 10963 10967 10971 10976 10982
10649 10648 10647 10647 10646 10645 10644 10644 10642 10641 10639 10636 10633 10629 10624 10619 10616 10613 10611 10610 10610 10610 10612 10613 10615 10616 10618 10623 10630 10635 10641 10647 10653 10659 10664 10670 10679 10686 10692 10700 10707 10713 10719 10726 10732 10736 10741 10746 10751 10762 10775 10782 10788 10794 10799 10803 10808 10814 10818 10824 10828 10831 10835 10839 10842 10848 10858 10869 10882 10892 10898 10906 10916 10923 10927 10933 10941 10946 10950 10955 10955 10953 10952 10954 10960 10965 10969 10975
10649 10647 10647 10646 10645 10643 10642 10641 10639 10638 10635 10632 10629 10624 10619 10614 10610 10607 10605 10604 10604 10604 10605 10607 10608 10610 10613 10618 10623 10627 10632 10637 10641 10646 10650 10656 10665 10674 10683 10692 10698 10702 10706 10713 10720 10725 10731 10737 10743 10755 10769 10776 10782 10786 10787 10790 10798 10804 10809 10815 10819 10822 10825 10829 10834 10841 10851 10863 10876 10884 10890 10899 10909 10915 10921 10927 10933 10938 10944 10951 10952 10949 10945 10947 10952 10957 10962 10967
10648 10647 10646 10645 10643 10642 10640 10638 10637 10634 10632 10629 10625 10620 10615 10610 10606 10603 10601 10600 10599 10599 10600 10602 10603 10605 10608 10612 10615 10618 10623 10629 10633 10638 10644 10650 10658 10665 10673 10682 10689 10692 10696 10703 10710 10716 10722 10728 10735 10746 10757 10764 10769 10770 10773 10779 10786 10793 10800 10806 10808 10809 10814 10822 10827 10833 10843 10857 10869 10877 10884 10893 10900 10907 10915 10920 10926 10933 10940 10946 10947 10942 10939 10941 10945 10949 10953 10958
10648 10647 10645 10643 10642 10640 10638 10636 10635 10633 10630 10627 10623 10618 10613 10608 10603 10600 10597 10596 10596 10596 10596 10597 10599 10601 10603 10605 10608 10611 10616 10622 10627 10632 10637 10644 10652 10658 10663 10671 10678 10682 10688 10696 10703 10710 10716 10720 10727 10736 10744 10751 10755 10758 10764 10772 10779 10787 10792 10794 10795 10798 10806 10815 10819 10823 10834 10848 10860 10870 10879 10886 10893 10901 10908 10912 10919 10927 10931 10935 10936 10932 10929 10933 10938 10941 10945 10950
10648 10646 10644 10642 10640 10638 10637 10635 10633 10631 10628 10625 10620 10616 10611 10606 10602 10598 10595 10594 10593 10593 10592 10593 10595 10597 10598 10600 10603 10606 10610 10615 10620 10625 10631 10637 10644 10649 10655 10663 10670 10675 10683 10690 10696 10703 10708 10712 10720 10727 10733 10741 10747 10752 10760 10767 10774 10781 10784 10785 10786 10790 10798 10805 10810 10816 10826 10839 10851 10862 10873 10881 10888 10893 10899 10905 10912 10917 10921 10924 10924 10921 10921 10926 10931 10934 10937 10942
10647 10645 10643 10641 10640 10638 10635 10633 10631 10628 10625 10621 10617 10613 10608 10604 10601 10597 10594 10592 10591 10590 10590 10590 10592 10593 10595 10597 10599 10601 10604 10608 10613 10617 10623 10628 10635 10641 10648 10656 10664 10672 10681 10685 10690 10696 10701 10706 10713 10719 10725 10733 10741 10747 10753 10759 10767 10773 10776 10776 10777 10781 10789 10795 10801 10808 10818 10829 10841 10853 10866 10875 10880 10884 10890 10898 10904 10908 10915 10917 10913 10912 10914 10919 10924 10927 10931 10936
10647 10644 10642 10641 10639 10637 10635 10632 10630 10627 10623 10619 10615 10611 10607 10603 10599 10596 10593 10591 10589 10588 10587 10588 10589 10590 10592 10594 10596 10598 10601 10604 10607 10611 10615 10621 10628 10634 10641 10650 10659 10667 10674 10678 10682 10688 10694 10700 10706 10712 10718 10726 10734 10742 10747 10753 10760 10763 10764 10764 10764 10769 10779 10786 10793 10802 10811 10819 10831 10845 10857 10864 10871 10878 10884 10890 10895 10900 10906 10905 10901 10903 10908 10912 10917 10922 10926 10930
10646 10644 10642 10640 10638 10636 10634 10631 10628 10625 10621 10618 10614 10610 10606 10602 10599 10596 10593 10591 10588 10587 10586 10586 10587 10588 10590 10591 10593 10595 10598 10601 10603 10606 10610 10616 10622 10629 10636 10644 10652 10658 10664 10668 10673 10678 10685 10693 10699 10704 10711 10718 10726 10735 10743 10747 10750 10749 10748 10750 10752 10758 10768 10776 10785 10796 10804 10812 10823 10837 10847 10855 10864 10872 10876 10881 10888 10893 10896 10895 10893 10895 10901 10907 10912 10917 10921 10925
10645 10643 10642 10640 10638 10635 10633 10630 10627 10624 10620 10617 10613 10609 10605 10601 10598 10595 10593 10591 10589 10587 10585 10585 10586 10587 10588 10589 10591 10593 10595 10598 10600 10603 10607 10612 10617 10623 10629 10636 10642 10647 10652 10657 10663 10670 10677 10685 10693 10697 10703 10710 10718 10727 10734 10736 10737 10736 10737 10740 10744 10751 10761 10769 10779 10791 10799 10805 10816 10827 10837 10847 10856 10863 10868 10873 10880 10886 10887 10886 10884 10886 10892 10901 10907 10911 10915 10918
10644 10642 10640 10639 10636 10634 10632 10629 10627 10623 10620 10617 10613 10609 10605 10601 10597 10594 10592 10590 10589 10587 10585 10584 10585 10585 10586 10587 10589 10590 10592 10595 10597 10600 10603 10607 10611 10617 10622 10629 10634 10638 10642 10648 10656 10663 10670 10678 10686 10689 10693 10702 10710 10717 10722 10724 10725 10726 10728 10733 10737 10742 10751 10760 10772 10784 10791 10797 10807 10817 10827 10838 10847 10853 10859 10864 10871 10877 10877 10874 10873 10877 10884 10892 10899 10904 10908 10910
10643 10641 10639 10637 10635 10633 10631 10628 10626 10623 10620 10616 10613 10609 10606 10602 10598 10595 10592 10590 10589 10587 10586 10585 10584 10584 10585 10586 10586 10588 10590 10593 10595 10597 10599 10602 10607 10612 10617 10623 10628 10632 10637 10643 10652 10659 10665 10672 10679 10681 10686 10694 10701 10706 10711 10715 10716 10717 10719 10724 10727 10732 10741 10751 10762 10773 10781 10787 10795 10804 10814 10825 10834 10842 10849 10855 10862 10866 10865 10862 10864 10870 10876 10882 10889 10895 10899 10902